Regional Weather Roundup
Issued by NWS Lake Charles, LA

Home | Current Version | Previous Version | Text Only | Print | Product List | Glossary On
Versions: 1 2 3 4 5 6 7 8 9 10 11 12 13 14 15 16 17 18 19 20 21 22 23 24 25 26 27 28 29 30 31 32 33 34 35 36 37 38 39 40 41 42 43 44 45 46 47 48 49 50
000
ASUS44 KLCH 140310
RWRLCH
RWRLCH
REGIONAL WEATHER ROUNDUP
NATIONAL WEATHER SERVICE LAKE CHARLES LA
1000 PM CDT SUN JUL 13 2014

Note: "fair" indicates few or no clouds below 12,000 feet with no
significant weather and/or obstructions to visibility.


ACROSS SOUTHEAST TEXAS

CITY           SKY/WX    TMP DP  RH WIND       PRES   REMARKS
BEAUMONT       MOCLDY    74  70  87 S3        30.01R
BEAUMONT CITY    N/A     71  70  96 NW3       30.03R
ORANGE         PTCLDY    72  72 100 SW5       30.03R
JASPER         CLOUDY    72  70  94 CALM      30.04S
$$

ACROSS CENTRAL LOUISIANA

CITY           SKY/WX    TMP DP  RH WIND       PRES   REMARKS
LEESVILLE      CLEAR     74  70  87 SW5       30.02F
FULLERTON        N/A     75  72  90 CALM      30.00F
ALEXANDRIA INT MOCLDY    79  74  84 CALM      29.99F
ESLER FIELD    MOCLDY    81  76  84 CALM      30.02S
DERIDDER         N/A     73  71  94 CALM      30.04S
OAKDALE        PTCLDY    74  73  93 CALM      30.02F
OPELOUSAS        N/A     77  73  88 S3        30.02S
$$

ACROSS SOUTHWEST AND SOUTH CENTRAL LOUISIANA

CITY           SKY/WX    TMP DP  RH WIND       PRES   REMARKS
SULPHUR        PTCLDY    73  73  98 CALM      30.01S
LAKE CHARLES   PTCLDY    73  71  93 SE3       30.00F
CHENNAULT INT  MOCLDY    74  72  92 SE5       30.02S
CAMERON PHI    CLEAR     75  72  88 E3        30.01F
DEQUINCY         N/A     71  70  97 CALM      30.00F
JENNINGS         N/A     77  74  91 NW3       30.02S
LAFAYETTE      CLEAR     78  72  81 SW3       30.03S
NEW IBERIA     CLEAR     77  75  93 S3        30.03F
ABBEVILLE        N/A     75  73  92 CALM      30.03S
PATTERSON      CLEAR     75  73  94 CALM      30.07F
SALT POINT       N/A     84  77  79 CALM      30.03S
$$

SELECTED SITES ACROSS THE REGION

CITY           SKY/WX    TMP DP  RH WIND       PRES   REMARKS
HOUSTON BUSH   MOCLDY    80  70  71 SE5       30.01F
HOUSTON HOBBY  MOCLDY    80  72  76 SE5       30.01F
GALVESTON      PTCLDY    80  75  84 CALM      30.02S HAZE
COLLEGE STAT   MOCLDY    85  71  63 SE16G24   30.01S
CONROE         CLOUDY    78  71  79 SE5       30.04R
HUNTSVILLE     CLOUDY    83  70  64 VRB6      30.03R
LUFKIN         CLOUDY    80  71  74 CALM      30.01F
SHREVEPORT     MOCLDY    83  72  69 S7        29.99S
MONROE         MOCLDY    82  77  84 CALM      30.02R
NATCHEZ MS     MOCLDY    77  72  83 SE6       30.05S
BATON ROUGE    PTCLDY    77  73  87 W3        30.04R
N.O. INTL ARPT PTCLDY    79  74  84 CALM      30.05R
SLIDELL        CLEAR     76  72  87 CALM      30.05R
$$

MARINE REPORTS

STATION/POSITION TIME  TEMP    WIND        PRES    VSBY  WAVE
                       AIR SEA DIR/SP/G                  HT/PER
                 (UTC) (F)     (DEG/KT/KT) (MB)    (MI)  (FT/S)
BUOY 30 S HIGH I NOT AVBL
SEA RIM ST PARK  0300   72     290/  3/  4 1017.2R
PORT ARTHUR      0300      88  270/  4/  5 1016.5R
SABINE PASS N    0300   75 87  300/  5/  6 1016.2R
TEXAS POINT      0300   77 88  270/  1/  2 1016.0R
CALCASIEU PASS   0300   77 85  110/  3/  3 1017.0F
LK CHARLES BEACH 0300   74 87              1016.8R
MARSH ISLAND     0200   85     270/  6/  8   N/A
FRESH WATER LOCK 0300   82 88  190/  2/  3 1016.7F
AMERADA PASS     0300   81 87   CALM  /  1 1017.2F
$$



USA.gov is the U.S. government's official web portal to all federal, state and local government web resources and services.